Regional Weather Roundup
Issued by NWS

Home | Current Version | Previous Version | Graphics & Text | Print | Product List | Glossary On
Versions: 1 2 3 4 5 6 7 8 9 10 11 12 13 14 15 16 17 18 19 20 21 22 23 24 25 26 27 28 29 30 31 32 33 34 35 36 37 38 39 40 41 42 43 44 45 46 47 48 49 50
000
ASUS45 KCYS 301010
RWRWY

WYOMING REGIONAL WEATHER ROUNDUP
NATIONAL WEATHER SERVICE CHEYENNE WY
400 AM MDT TUE SEP 30 2014

NOTE:  "FAIR" INDICATES FEW OR NO CLOUDS BELOW 12,000 FEET
WITH NO SIGNIFICANT WEATHER AND/OR OBSTRUCTIONS TO VISIBILITY.

WYZ001-301100-
YELLOWSTONE NATIONAL PARK

CITY           SKY/WX    TMP DP  RH WIND       PRES   REMARKS
LK YELLOWSTONE   N/A     38  34  85 CALM      29.98F
W YELLOWSTONE  NOT AVBL

$$
WYZ002>013-054>058-071-098>099-301100-
NORTHERN WYOMING

CITY           SKY/WX    TMP DP  RH WIND       PRES   REMARKS
JACKSON        CLOUDY    43  43 100 SW5       29.96F
CODY           CLEAR     54  36  50 W12G20    29.79S
GREYBULL       PTCLDY    48  46  93 E6        29.76S
WORLAND        PTCLDY    44  42  93 CALM      29.76F
SHERIDAN       CLOUDY    51  48  89 E3        29.73F
BUFFALO        CLOUDY    49  47  93 NW10      29.74F
GILLETTE       LGT RAIN  50  48  93 E5        29.71F
HULETT         DRIZZLE   50  48  93 CALM      29.70
NEWCASTLE      LGT RAIN  48  45  87 N16G24    29.63

$$
WYZ014>020-022>026-101>103-301100-
CENTRAL WYOMING

CITY           SKY/WX    TMP DP  RH WIND       PRES   REMARKS
BIG PINEY      CLOUDY    39  37  92 E3        29.97F
PINEDALE       CLOUDY    39  37  93 W5        29.97F
DUBOIS         FAIR      39  32  75 NW14      29.90S WCI  31
LANDER         CLEAR     43  34  70 VRB3      29.82F
RIVERTON       PTCLDY    47  36  65 NW16      29.81F
CASPER         CLOUDY    50  38  63 W15G25    29.76F
DOUGLAS        CLOUDY    51  44  77 NW16G22   29.69F

$$
WYZ021-027>030-104>119-301100-
SOUTHERN WYOMING

CITY           SKY/WX    TMP DP  RH WIND       PRES   REMARKS
EVANSTON       LGT RAIN  41  39  93 SW12      30.01F
KEMMERER       DRIZZLE   39  37  93 SW8       30.00F WCI  34
FORT BRIDGER     N/A     44  40  86 W16G22    30.02F
ROCK SPRINGS   CLEAR     41  36  82 SW14      29.97F
DIXON          PTSUNNY   44  40  86 SW10G16   30.02F
RAWLINS        MOCLDY    42  36  79 W25G35    29.91F
SARATOGA         N/A     43  36  75 W20G25    29.95S
LARAMIE        CLOUDY    45  34  65 W22G28    29.85F
CHEYENNE       CLOUDY    50  38  63 W16       29.79R
TORRINGTON     LGT RAIN  49  48  97 W10       29.67F FOG
PINE BLUFFS    CLOUDY    46  45  93 SW17G23   29.79R

$$



USA.gov is the U.S. government's official web portal to all federal, state and local government web resources and services.